St. Kitts, Saint Kitts and Nevis

9:44 AM AST on October 17, 2017 (GMT -0400)
St. Kitts

Weather History for TKPK - October, 2013

Change the Weather History Date:

Thursday, October 3, 2013

  Actual Average Record
Temperature  
Mean Temperature 84 °F -  
Max Temperature 90 °F 85 °F 91 °F (2015)
Min Temperature 79 °F 76 °F 73 °F (2005)
Cooling Degree Days 20    
Growing Degree Days 34 (Base 50)    
Moisture  
Dew Point 76 °F    
Average Humidity 75    
Maximum Humidity 89    
Minimum Humidity 56    
Precipitation  
Precipitation 0.00 in - - ()
Sea Level Pressure  
Sea Level Pressure 29.94 in    
Wind  
Wind Speed 8 mph ()    
Max Wind Speed 14 mph    
Max Gust Speed -    
Visibility 8.7 miles    
Events Rain , Tornado    
Averages and records for this station are not official NWS values.
T = Trace of Precipitation, MM = Missing Value Source: Averaged Metar Reports

Daily Weather History Graph

Daily Weather History Graph

Search for Another Location

Airport or City:

Trip Planner

Search our weather history database for the weather conditions in past years. The results will help you decide how hot, cold, wet, or windy it might be!

Date:

Astronomy

Oct. 03, 2013 Rise Set
Actual Time 6:01 AM AST 5:57 PM AST
Civil Twilight 5:39 AM AST 6:19 PM AST
Nautical Twilight 5:14 AM AST 6:44 PM AST
Astronomical Twilight 4:49 AM AST 7:09 PM AST
Moon 4:38 AM AST (10/3) 4:59 PM AST (10/3)
Length of Visible Light 12h 39m
Length of Day
11h 56m
Waning Crescent, 2% of the Moon is Illuminated
Oct 3
Waning Crescent
Oct 4
New
Oct 11
First Quarter
Oct 18
Full
Oct 26
Last Quarter

Hourly Weather History & Observations

Time (AST) Temp. Heat Index Dew Point Humidity Pressure Visibility Wind Dir Wind Speed Gust Speed Precip Events Conditions
6:00 AM 80.6 °F 86.2 °F 75.2 °F 84% 29.92 in 6.2 mi ENE 9.2 mph - N/A   Scattered Clouds
7:00 AM 80.6 °F 87.1 °F 77.0 °F 89% 29.92 in 6.2 mi NNE 8.1 mph - N/A Rain Light Rain Showers
8:00 AM 85 °F - 77 °F 72% 29.96 in 17 mi East 9.2 mph - - Rain Light Rain Showers
8:00 AM 84.2 °F 94.1 °F 77.0 °F 79% 29.95 in 6.2 mi East 9.2 mph - N/A   Scattered Clouds
9:00 AM 84.2 °F 94.1 °F 77.0 °F 79% 29.98 in 6.2 mi East 10.4 mph - N/A   Mostly Cloudy
10:00 AM 87.8 °F 99.7 °F 77.0 °F 70% 29.98 in 6.2 mi ESE 10.4 mph - N/A   Scattered Clouds
11:00 AM 87 °F - 74 °F 56% 29.99 in 17 mi East 13.8 mph - - Rain Light Rain Showers
11:00 AM 86.0 °F 93.4 °F 73.4 °F 66% 29.98 in - East 13.8 mph - N/A Rain Light Rain Showers
1:00 PM 89.6 °F 98.2 °F 73.4 °F 59% 29.95 in 6.2 mi East 11.5 mph - N/A   Partly Cloudy
2:00 PM 87.8 °F 99.7 °F 77.0 °F 70% 29.92 in 6.2 mi East 6.9 mph - N/A   Partly Cloudy
3:00 PM 86.0 °F 96.9 °F 77.0 °F 74% 29.89 in 6.2 mi NE 9.2 mph - N/A   Partly Cloudy
4:00 PM 86.0 °F 96.9 °F 77.0 °F 74% 29.89 in 6.2 mi ENE 8.1 mph - N/A   Partly Cloudy
5:00 PM 84 °F - 75 °F 67% 29.92 in 19 mi ENE 8.1 mph - -   Scattered Clouds
5:00 PM 84.2 °F 92.3 °F 75.2 °F 74% 29.92 in 6.2 mi ENE 8.1 mph - N/A   Partly Cloudy
6:00 PM 82.4 °F 89.5 °F 75.2 °F 79% 29.92 in 6.2 mi ENE 5.8 mph - N/A Tornado Funnel Cloud
7:00 PM 82.4 °F 89.5 °F 75.2 °F 79% 29.92 in 6.2 mi ENE 5.8 mph - N/A   Partly Cloudy
8:00 PM 81 °F - 75 °F 78% 29.95 in 17 mi ENE 5.8 mph - -   Scattered Clouds
8:00 PM 80.6 °F 86.2 °F 75.2 °F 84% 29.95 in 6.2 mi ENE 5.8 mph - N/A   Partly Cloudy
9:00 PM 80.6 °F 86.2 °F 75.2 °F 84% 29.95 in 6.2 mi ENE 5.8 mph - N/A   Partly Cloudy